When you browse on this site, cookies collect data to enhance your experience and personalize the content and advertising you see.
Visit our Privacy Policy to learn more. By continuing to use the site, you agree to this use of cookies and data.
  • In Portugal
  • List of Countries
  • For 7 days
  • Water Temperature
  • Satellite Maps
  • Weather Map
  • Weather Widgets
  • user-avatar
    Login

    Hourly Weather Garlino

    Today, 24 March, Sunday

    Time Temperature Precipitation Wind Pressure Humidity
    00:00 +5°C° 0 mm 4 mps 754 mmHg 86%
    01:00 +4°C° 0 mm 4 mps 754 mmHg 85%
    02:00 +4°C° 0 mm 4 mps 755 mmHg 83%
    03:00 +3°C° 0 mm 4 mps 755 mmHg 80%
    04:00 +2°C° 0 mm 3 mps 755 mmHg 78%
    05:00 +1°C° 0 mm 4 mps 755 mmHg 76%
    06:00 +1°C° 0 mm 4 mps 755 mmHg 74%
    07:00 +1°C° 0 mm 4 mps 755 mmHg 72%
    08:00 +4°C° 0 mm 4 mps 755 mmHg 67%
    09:00 +5°C° 0 mm 4 mps 755 mmHg 62%
    10:00 +6°C° 0 mm 4 mps 755 mmHg 57%
    11:00 +7°C° 0 mm 4 mps 755 mmHg 53%
    12:00 +8°C° 0 mm 4 mps 754 mmHg 49%
    13:00 +10°C° 0 mm 4 mps 754 mmHg 44%
    14:00 +10°C° 0 mm 4 mps 753 mmHg 45%
    15:00 +9°C° 0 mm 3 mps 753 mmHg 45%
    16:00 +9°C° 0 mm 3 mps 752 mmHg 46%
    17:00 +8°C° 0 mm 2 mps 752 mmHg 49%
    18:00 +7°C° 0 mm 2 mps 752 mmHg 53%
    19:00 +7°C° 0 mm 1 mps 751 mmHg 57%
    20:00 +7°C° 0 mm 1 mps 751 mmHg 59%
    21:00 +6°C° 0 mm 1 mps 751 mmHg 61%
    22:00 +6°C° 0 mm 1 mps 750 mmHg 64%
    23:00 +5°C° 0 mm 1 mps 750 mmHg 65%

    Tomorrow, 25 March, Monday

    Time Temperature Precipitation Wind Pressure Humidity
    00:00 +5°C° 0 mm 1 mps 749 mmHg 67%
    01:00 +4°C° 0 mm 0 mps 749 mmHg 69%
    02:00 +4°C° 0 mm 1 mps 748 mmHg 71%
    03:00 +4°C° 0 mm 1 mps 748 mmHg 73%
    04:00 +3°C° 0 mm 1 mps 747 mmHg 75%
    05:00 +2°C° 0 mm 2 mps 747 mmHg 73%
    06:00 +3°C° 0 mm 2 mps 746 mmHg 71%
    07:00 +3°C° 0 mm 2 mps 746 mmHg 69%
    08:00 +4°C° 0 mm 2 mps 746 mmHg 64%
    09:00 +6°C° 0 mm 2 mps 746 mmHg 59%
    10:00 +7°C° 0 mm 3 mps 745 mmHg 53%
    11:00 +7°C° 0.4 mm 3 mps 745 mmHg 54%
    12:00 +7°C° 0.4 mm 3 mps 745 mmHg 54%
    13:00 +7°C° 0.4 mm 3 mps 745 mmHg 55%
    14:00 +7°C° 0.3 mm 3 mps 745 mmHg 54%
    15:00 +7°C° 0.3 mm 3 mps 745 mmHg 54%
    16:00 +7°C° 0.3 mm 3 mps 745 mmHg 53%
    17:00 +5°C° 0 mm 3 mps 745 mmHg 60%
    18:00 +4°C° 0 mm 3 mps 746 mmHg 67%
    19:00 +4°C° 0 mm 2 mps 746 mmHg 74%
    20:00 +2°C° 0 mm 3 mps 747 mmHg 78%
    21:00 +1°C° 0 mm 3 mps 748 mmHg 81%
    22:00 +1°C° 0 mm 3 mps 748 mmHg 85%
    23:00 +1°C° 0 mm 3 mps 749 mmHg 87%

    Day after tomorrow, 26 March, Tuesday

    Time Temperature Precipitation Wind Pressure Humidity
    00:00 0°C° 0 mm 4 mps 750 mmHg 90%
    01:00 0°C° 0 mm 4 mps 750 mmHg 92%
    02:00 0°C° 0 mm 4 mps 751 mmHg 88%
    03:00 0°C° 0 mm 4 mps 751 mmHg 83%
    04:00 0°C° 0 mm 5 mps 752 mmHg 79%
    05:00 -1°C° 0 mm 4 mps 752 mmHg 78%
    06:00 -1°C° 0 mm 4 mps 753 mmHg 76%
    07:00 -1°C° 0 mm 4 mps 753 mmHg 75%
    08:00 0°C° 0 mm 4 mps 753 mmHg 66%
    09:00 +1°C° 0 mm 5 mps 753 mmHg 57%
    10:00 +3°C° 0 mm 5 mps 753 mmHg 48%
    11:00 +4°C° 0 mm 6 mps 753 mmHg 47%
    12:00 +5°C° 0 mm 6 mps 753 mmHg 46%
    13:00 +5°C° 0 mm 7 mps 753 mmHg 45%
    14:00 +5°C° 0.1 mm 7 mps 753 mmHg 48%
    15:00 +5°C° 0.1 mm 6 mps 753 mmHg 51%
    16:00 +5°C° 0.1 mm 6 mps 752 mmHg 54%
    17:00 +5°C° 0.1 mm 5 mps 753 mmHg 59%
    18:00 +3°C° 0.1 mm 5 mps 753 mmHg 64%
    19:00 +3°C° 0.1 mm 4 mps 753 mmHg 68%
    20:00 +2°C° 0 mm 3 mps 754 mmHg 70%
    21:00 +1°C° 0 mm 3 mps 754 mmHg 73%
    22:00 +1°C° 0 mm 2 mps 755 mmHg 75%
    23:00 -1°C° 0 mm 2 mps 755 mmHg 76%

    27 March, Wednesday

    Time Temperature Precipitation Wind Pressure Humidity
    00:00 +1°C° 0 mm 1 mps 756 mmHg 77%
    01:00 0°C° 0 mm 1 mps 756 mmHg 79%
    02:00 0°C° 0 mm 1 mps 756 mmHg 78%
    03:00 0°C° 0 mm 1 mps 756 mmHg 77%
    04:00 +1°C° 0 mm 1 mps 756 mmHg 76%
    05:00 -1°C° 0 mm 2 mps 756 mmHg 75%
    06:00 0°C° 0 mm 3 mps 756 mmHg 74%
    07:00 +1°C° 0 mm 3 mps 756 mmHg 73%
    08:00 +1°C° 0 mm 4 mps 756 mmHg 68%
    09:00 +4°C° 0 mm 4 mps 756 mmHg 62%
    10:00 +5°C° 0 mm 5 mps 756 mmHg 56%
    11:00 +6°C° 0.1 mm 5 mps 756 mmHg 56%
    12:00 +7°C° 0.1 mm 5 mps 756 mmHg 56%
    13:00 +8°C° 0.1 mm 6 mps 756 mmHg 56%
    14:00 +7°C° 0.4 mm 5 mps 756 mmHg 64%
    15:00 +6°C° 0.4 mm 5 mps 756 mmHg 72%
    16:00 +6°C° 0.4 mm 4 mps 756 mmHg 80%
    17:00 +5°C° 0.2 mm 4 mps 756 mmHg 84%
    18:00 +5°C° 0.2 mm 3 mps 756 mmHg 88%
    19:00 +4°C° 0.2 mm 3 mps 756 mmHg 91%
    20:00 +4°C° 0 mm 3 mps 756 mmHg 93%
    21:00 +4°C° 0 mm 2 mps 756 mmHg 94%
    22:00 +4°C° 0 mm 2 mps 757 mmHg 95%
    23:00 +4°C° 0 mm 2 mps 757 mmHg 96%

    28 March, Thursday

    Time Temperature Precipitation Wind Pressure Humidity
    00:00 +4°C° 0 mm 2 mps 757 mmHg 96%
    01:00 +4°C° 0 mm 2 mps 757 mmHg 96%
    02:00 +4°C° 0 mm 2 mps 757 mmHg 96%
    03:00 +5°C° 0 mm 1 mps 758 mmHg 96%
    04:00 +4°C° 0 mm 1 mps 758 mmHg 96%
    05:00 +5°C° 0 mm 1 mps 758 mmHg 95%
    06:00 +5°C° 0 mm 1 mps 758 mmHg 93%
    07:00 +6°C° 0 mm 1 mps 759 mmHg 92%
    08:00 +7°C° 0 mm 1 mps 759 mmHg 87%
    09:00 +7°C° 0 mm 1 mps 759 mmHg 83%
    10:00 +7°C° 0 mm 2 mps 759 mmHg 78%
    11:00 +8°C° 0 mm 2 mps 759 mmHg 74%
    12:00 +9°C° 0 mm 2 mps 759 mmHg 70%
    13:00 +9°C° 0 mm 3 mps 759 mmHg 67%
    14:00 +10°C° 0 mm 2 mps 759 mmHg 65%
    15:00 +10°C° 0 mm 2 mps 759 mmHg 64%
    16:00 +10°C° 0 mm 2 mps 759 mmHg 62%
    17:00 +8°C° 0 mm 2 mps 759 mmHg 68%
    18:00 +8°C° 0 mm 1 mps 759 mmHg 74%
    19:00 +7°C° 0 mm 1 mps 759 mmHg 79%
    20:00 +6°C° 0 mm 1 mps 759 mmHg 81%
    21:00 +6°C° 0 mm 1 mps 760 mmHg 83%
    22:00 +5°C° 0 mm 1 mps 760 mmHg 85%
    23:00 +5°C° 0 mm 1 mps 760 mmHg 86%

    29 March, Friday

    Time Temperature Precipitation Wind Pressure Humidity
    00:00 +5°C° 0 mm 1 mps 760 mmHg 86%
    01:00 +5°C° 0 mm 1 mps 760 mmHg 87%
    02:00 +4°C° 0 mm 1 mps 760 mmHg 87%
    03:00 +4°C° 0 mm 1 mps 760 mmHg 88%
    04:00 +4°C° 0 mm 1 mps 760 mmHg 88%
    05:00 +4°C° 0 mm 1 mps 760 mmHg 86%
    06:00 +5°C° 0 mm 1 mps 760 mmHg 83%
    07:00 +6°C° 0 mm 1 mps 760 mmHg 80%
    08:00 +7°C° 0 mm 2 mps 760 mmHg 73%
    09:00 +9°C° 0 mm 2 mps 760 mmHg 66%
    10:00 +11°C° 0 mm 3 mps 760 mmHg 59%
    11:00 +12°C° 0 mm 3 mps 760 mmHg 57%
    12:00 +12°C° 0 mm 4 mps 759 mmHg 54%
    13:00 +13°C° 0 mm 4 mps 759 mmHg 51%
    14:00 +13°C° 0 mm 4 mps 759 mmHg 51%
    15:00 +13°C° 0 mm 4 mps 758 mmHg 52%
    16:00 +13°C° 0 mm 4 mps 758 mmHg 53%
    17:00 +11°C° 0 mm 4 mps 758 mmHg 60%
    18:00 +10°C° 0 mm 3 mps 758 mmHg 68%
    19:00 +8°C° 0 mm 3 mps 758 mmHg 75%
    20:00 +7°C° 0 mm 3 mps 758 mmHg 79%
    21:00 +7°C° 0 mm 3 mps 758 mmHg 83%
    22:00 +5°C° 0 mm 3 mps 758 mmHg 87%
    23:00 +5°C° 0 mm 3 mps 758 mmHg 88%
    Show more